Location: Knowlton
(51.2333°N, 1.2667°E)
Time: 10:03:37
(UTC+00:00)

Cosmos 841 Rocket - Pass Details

Date: 18 April 2021
Orbit: 747 x 772 km, 74.0° (Epoch: 16 May)

Event Time Altitude Azimuth Distance (km) Brightness Sun altitude
Rises 21:42:45 0° 338° (NNW) 3,245 8.2 -21.4°
Reaches altitude 10° 21:45:17 10° 346° (NNW) 2,311 7.0 -21.7°
Maximum altitude 21:50:14 40° 56° (NE) 1,110 4.3 -22.1°
Enters shadow 21:51:31 34° 90° (E) 1,230 4.3 -22.2°
